Content
SEND FEEDBACK

Daily
Averages
Monthly
Summary
United States of America

BOX ELDER, SOUTH DAKOTA


Home > North America > United States > South Dakota
Elevation: 3170 feet     Latitude: 44 09N     Longitude: 103 06W

WEATHER
 
SELECT A DAY
Number of Records: 204,315;   Date Range: 1/1/95 - 9/18/14
 
SHARE

PRINT THIS DATA

[ ← Previous Day ]
WEATHER ALMANAC - JANUARY 1, 2013
[ Next Day → ]
[ °C ]   °F
Weather ElementAverageHighLow
Temperature25.7 °F32.7 °F (1:55 pm)6.8 °F (3:55 am)
Dewpoint19.5 °F26.6 °F (7:17 pm)1 °F (3:55 am)
Humidity78 %93 % (8:46 pm)55 % (11:55 am)
Barometer30.14 in30.23 in (2:55 am)30.09 in (1:55 pm)
Wind Speed15.9 mph28.8 mph (9:49 pm)
Wind Gust32.2 mph (9:19 pm)
Weather ElementAverage
Visibility7.7 mi
Wind DirectionWSW (261.8 °)

Weather ElementTotal
Precipitation---
Heating Degree Days45.3 (Base 65)
Averaged from 38 records on January 1, 2013
WEATHER CONDITIONS BREAKOUT
WIND DIRECTION BREAKOUT
WEATHER BY HOUR - JANUARY 1, 2013
[ °C ]   °F
Local TimeTemperatureDewpointHumidityBarometerVisibilityWind DirectionWind SpeedGust SpeedPrecipitationEventsConditions
1:55 AM11.8 °F5.9 °F77 %30.22 in10.0 miWSW (250°)3.5 mphClear
2:55 AM8.2 °F2.5 °F77 %30.23 in10.0 miWest (280°)6.9 mphClear
3:55 AM6.8 °F1.0 °F77 %30.23 in10.0 miWest (280°)8.1 mphClear
4:55 AM10.8 °F3.2 °F72 %30.23 in10.0 miWest (280°)5.8 mphClear
5:55 AM11.8 °F4.5 °F72 %30.23 in10.0 miWest (260°)4.6 mphMostly Cloudy
6:55 AM13.6 °F5.9 °F71 %30.23 in10.0 miWSW (240°)5.8 mphMostly Cloudy
7:55 AM18.5 °F10.8 °F72 %30.22 in10.0 miWSW (250°)6.9 mphOvercast
8:55 AM19.2 °F12.0 °F74 %30.21 in10.0 miVariable3.5 mphPartly Cloudy
9:55 AM25.0 °F13.8 °F63 %30.19 in10.0 miCalmPartly Cloudy
10:55 AM29.3 °F16.0 °F58 %30.16 in10.0 miCalmClear
11:55 AM32.2 °F17.4 °F55 %30.12 in10.0 miSSE (150°)5.8 mphClear
12:55 PM32.0 °F19.6 °F60 %30.10 in10.0 miSouth (170°)5.8 mphClear
1:55 PM32.7 °F18.7 °F56 %30.09 in10.0 miSouth (170°)5.8 mphClear
2:55 PM32.7 °F19.8 °F59 %30.11 in10.0 miSSW (210°)8.1 mphClear
3:55 PM28.4 °F20.3 °F72 %30.12 in10.0 miSSW (200°)6.9 mphMostly Cloudy
4:55 PM29.3 °F20.1 °F69 %30.11 in10.0 miCalmOvercast
5:55 PM32.2 °F21.2 °F64 %30.09 in10.0 miNorth (360°)8.1 mphOvercast
6:55 PM30.6 °F25.9 °F83 %30.11 in10.0 miNNW (340°)17.3 mphOvercast
7:17 PM30.2 °F26.6 °F86 %30.12 in10.0 miNorth (350°)15.0 mphOvercast
7:55 PM29.7 °F26.2 °F87 %30.10 in10.0 miNNW (340°)21.9 mph28.8 mph0.00 inOvercast
8:46 PM28.4 °F26.6 °F93 %30.13 in5.0 miNNW (330°)24.2 mph31.1 mphSnowLight Snow
8:55 PM28.8 °F26.1 °F90 %30.12 in4.0 miNNW (330°)26.5 mph0.00 inOvercast
9:19 PM28.4 °F24.8 °F86 %30.12 in2.5 miNNW (330°)25.3 mph32.2 mphSnowLight Snow
9:27 PM28.4 °F24.8 °F86 %30.12 in3.0 miNNW (330°)25.3 mphSnowLight Snow
9:38 PM28.4 °F24.8 °F86 %30.12 in2.5 miNNW (330°)26.5 mph31.1 mphSnowLight Snow
9:49 PM28.4 °F24.8 °F86 %30.12 in2.0 miNNW (330°)28.8 mphSnowLight Snow
9:54 PM28.4 °F24.8 °F86 %30.12 in2.0 miNW (320°)27.6 mph32.2 mphSnowLight Snow
9:55 PM28.0 °F25.5 °F90 %30.12 in1.8 miNW (320°)27.6 mph32.2 mph0.00 inSnowLight Snow
9:58 PM28.4 °F24.8 °F86 %30.12 in1.8 miNW (320°)26.5 mph32.2 mphSnowLight Snow
10:00 PM28.4 °F24.8 °F86 %30.13 in2.0 miNW (320°)25.3 mphSnowLight Snow
10:03 PM28.4 °F24.8 °F86 %30.12 in2.5 miNW (320°)28.8 mphSnowLight Snow
10:05 PM28.4 °F24.8 °F86 %30.12 in3.0 miNW (320°)26.5 mphSnowLight Snow
10:29 PM28.4 °F24.8 °F86 %30.12 in10.0 miNW (320°)25.3 mph32.2 mphOvercast
10:33 PM28.4 °F24.8 °F86 %30.12 in10.0 miNW (320°)25.3 mph31.1 mphOvercast
10:55 PM28.2 °F24.3 °F85 %30.13 in10.0 miNW (320°)23.0 mph29.9 mph0.00 inOvercast
11:51 PM28.4 °F24.8 °F86 %30.11 in10.0 miNW (320°)24.2 mphOvercast
11:55 PM28.6 °F24.6 °F85 %30.12 in10.0 miNW (320°)24.2 mph31.1 mph0.00 inOvercast
11:58 PM28.4 °F24.8 °F86 %30.11 in10.0 miNW (320°)23.0 mph32.2 mphOvercast
Hourly data recorded from KRCA, located miles away from Box Elder, South Dakota







STORIES FROM OUR PARTNERS